Location: Brede
(50.9167°N, 0.6000°E)
Time: 02:15:34
(UTC+00:00)

Cosmos 1953 - Pass Details

Date: 08 August 2020
Orbit: 538 x 558 km, 82.5° (Epoch: 25 September)

Event Time Altitude Azimuth Distance (km) Brightness Sun altitude
Exits shadow 03:31:15 - 196° (SSW) 2,003 4.7 -9.1°
Reaches altitude 10° 03:31:41 10° 197° (SSW) 1,823 4.5 -9.1°
Maximum altitude 03:35:42 70° 282° (WNW) 594 2.3 -8.6°
Drops below altitude 10° 03:39:46 10° 6° (N) 1,851 5.7 -8.1°
Sets 03:41:58 0° 9° (N) 2,754 6.7 -7.8°
